Location: Cahas Mountain Overlook
(37.0833°N, 80.1000°W)
Time: 18:57:07
(UTC-04:00)

SR - Pass Details

Date: 15 February 2026
Orbit: 572 x 849 km, 66.7° (Epoch: 12 March)

Event Time Altitude Azimuth Distance (km) Brightness Sun altitude
Rises 15:50:03 0° 312° (NW) 3,156 ? 22.5°
Reaches altitude 10° 15:53:06 10° 293° (WNW) 2,284 ? 22.0°
Maximum altitude 15:56:27 17° 253° (WSW) 1,878 ? 21.5°
Drops below altitude 10° 15:59:54 10° 214° (SW) 2,378 ? 20.9°
Sets 16:03:11 0° 195° (SSW) 3,343 ? 20.4°
